| time (UTC) | temp F | wind direction | speed MPH | gust MPH | rain 1hr in | rain 24hr in | rain mn in | humidity % | barometer mb |
| 20260510194550 | 54 | 190 | 0.0 | 5.0 | 0.00 | 0.44 | 0.35 | 50 | 1014.5 |
| 20260510193050 | 54 | 168 | 0.0 | 6.0 | 0.00 | 0.44 | 0.35 | 50 | 1014.4 |
| 20260510191548 | 54 | 193 | 0.0 | 3.0 | 0.00 | 0.44 | 0.35 | 49 | 1014.2 |
| 20260510190044 | 55 | 173 | 1.0 | 11.0 | 0.00 | 0.44 | 0.35 | 47 | 1013.9 |
| 20260510184543 | 55 | 174 | 0.0 | 10.0 | 0.00 | 0.56 | 0.35 | 46 | 1013.7 |
| 20260510183046 | 56 | 193 | 3.0 | 15.0 | 0.00 | 0.56 | 0.35 | 43 | 1013.6 |
| 20260510181546 | 57 | 207 | 5.0 | 20.0 | 0.00 | 0.56 | 0.35 | 34 | 1013.4 |
| 20260510180045 | 58 | 185 | 6.0 | 20.0 | 0.00 | 0.56 | 0.35 | 31 | 1013.5 |
| 20260510174542 | 58 | 210 | 0.0 | 12.0 | 0.00 | 0.57 | 0.35 | 34 | 1013.2 |
| 20260510173041 | 58 | 158 | 1.0 | 14.0 | 0.00 | 0.57 | 0.35 | 34 | 1013.2 |
| 20260510171542 | 59 | 193 | 3.0 | 15.0 | 0.00 | 0.57 | 0.35 | 34 | 1013.2 |
| 20260510170048 | 59 | 185 | 4.0 | 17.0 | 0.00 | 0.57 | 0.35 | 32 | 1013.0 |
| 20260510164549 | 58 | 185 | 3.0 | 16.0 | 0.00 | 0.59 | 0.35 | 34 | 1013.0 |
| 20260510163038 | 57 | 170 | 6.0 | 16.0 | 0.00 | 0.59 | 0.35 | 35 | 1013.2 |
| 20260510161538 | 58 | 166 | 11.0 | 21.0 | 0.00 | 0.59 | 0.35 | 33 | 1013.4 |
| 20260510160037 | 57 | 218 | 9.0 | 24.0 | 0.00 | 0.59 | 0.35 | 32 | 1013.2 |
| 20260510154547 | 58 | 174 | 8.0 | 21.0 | 0.00 | 0.69 | 0.35 | 32 | 1013.1 |
| 20260510153036 | 58 | 196 | 5.0 | 20.0 | 0.00 | 0.69 | 0.35 | 31 | 1013.3 |
| 20260510151537 | 58 | 251 | 8.0 | 20.0 | 0.00 | 0.69 | 0.35 | 35 | 1013.5 |
| 20260510150040 | 59 | 216 | 3.0 | 16.0 | 0.01 | 0.69 | 0.35 | 35 | 1013.4 |
| 20260510144540 | 58 | 127 | 5.0 | 16.0 | 0.01 | 0.71 | 0.35 | 41 | 1013.3 |
| 20260510143036 | 56 | 197 | 2.0 | 17.0 | 0.01 | 0.71 | 0.35 | 46 | 1013.7 |
| 20260510141531 | 55 | 191 | 3.0 | 13.0 | 0.01 | 0.71 | 0.35 | 51 | 1013.7 |
| 20260510140030 | 55 | 173 | 0.0 | 18.0 | 0.00 | 0.70 | 0.34 | 51 | 1013.5 |
| 20260510134530 | 57 | 112 | 3.0 | 18.0 | 0.00 | 0.70 | 0.34 | 47 | 1013.3 |
| 20260510133029 | 58 | 220 | 6.0 | 21.0 | 0.00 | 0.70 | 0.34 | 46 | 1013.3 |
| 20260510131541 | 57 | 152 | 3.0 | 16.0 | 0.00 | 0.70 | 0.34 | 47 | 1013.2 |
| 20260510130028 | 57 | 171 | 1.0 | 17.0 | 0.00 | 0.70 | 0.34 | 48 | 1013.4 |
| 20260510124524 | 56 | 137 | 2.0 | 20.0 | 0.00 | 0.75 | 0.34 | 51 | 1013.3 |
| 20260510123024 | 56 | 197 | 2.0 | 21.0 | 0.00 | 0.75 | 0.34 | 52 | 1013.7 |
| 20260510121520 | 55 | 191 | 0.0 | 11.0 | 0.00 | 0.75 | 0.34 | 58 | 1013.3 |
| 20260510120019 | 55 | 181 | 0.0 | 8.0 | 0.00 | 0.75 | 0.34 | 53 | 1013.5 |
| 20260510114518 | 55 | 191 | 0.0 | 12.0 | 0.00 | 0.83 | 0.34 | 56 | 1013.6 |
| 20260510113019 | 54 | 172 | 0.0 | 14.0 | 0.00 | 0.83 | 0.34 | 57 | 1013.7 |
| 20260510111515 | 53 | 194 | 1.0 | 10.0 | 0.00 | 0.83 | 0.34 | 58 | 1013.9 |
| 20260510110012 | 53 | 152 | 0.0 | 11.0 | 0.00 | 0.83 | 0.34 | 59 | 1013.8 |
| 20260510104511 | 52 | 185 | 0.0 | 5.0 | 0.02 | 0.86 | 0.34 | 62 | 1013.7 |
| 20260510103010 | 51 | 174 | 0.0 | 4.0 | 0.23 | 0.86 | 0.34 | 62 | 1013.8 |
| 20260510101509 | 50 | 215 | 0.0 | 11.0 | 0.26 | 0.86 | 0.34 | 62 | 1014.0 |
| 20260510100010 | 50 | 206 | 0.0 | 9.0 | 0.26 | 0.86 | 0.34 | 63 | 1013.9 |
| 20260510094509 | 50 | 149 | 9.0 | 23.0 | 0.24 | 0.83 | 0.31 | 61 | 1013.5 |
| 20260510093006 | 52 | 162 | 0.0 | 10.0 | 0.05 | 0.63 | 0.11 | 62 | 1013.3 |
| 20260510091508 | 53 | 141 | 1.0 | 13.0 | 0.02 | 0.60 | 0.08 | 59 | 1013.0 |
| 20260510090006 | 53 | 168 | 3.0 | 13.0 | 0.02 | 0.60 | 0.08 | 62 | 1013.2 |
| 20260510084501 | 52 | 206 | 0.0 | 7.0 | 0.02 | 0.59 | 0.07 | 63 | 1013.4 |
| 20260510083002 | 52 | 196 | 0.0 | 8.0 | 0.01 | 0.57 | 0.06 | 62 | 1013.5 |
| 20260510081503 | 53 | 87 | 0.0 | 6.0 | 0.01 | 0.57 | 0.06 | 62 | 1013.7 |
| 20260510080106 | 52 | 207 | 0.0 | 6.0 | 0.01 | 0.57 | 0.06 | 64 | 1013.6 |
| 20260510074554 | 51 | 207 | 0.0 | 9.0 | 0.00 | 0.56 | 0.06 | 64 | 1014.0 |
| 20260510073113 | 51 | 218 | 0.0 | 0.0 | 0.00 | 0.56 | 0.06 | 64 | 1014.0 |
| 20260510071552 | 50 | 104 | 0.0 | 6.0 | 0.00 | 0.56 | 0.06 | 64 | 1013.7 |
| 20260510070056 | 50 | 148 | 0.0 | 0.0 | 0.00 | 0.56 | 0.06 | 64 | 1013.7 |
| 20260510064619 | 50 | 183 | 0.0 | 0.0 | 0.00 | 0.56 | 0.06 | 65 | 1013.7 |
| 20260510063049 | 50 | 205 | 0.0 | 1.0 | 0.00 | 0.56 | 0.06 | 64 | 1013.6 |
| 20260510061548 | 50 | 359 | 0.0 | 0.0 | 0.00 | 0.56 | 0.06 | 65 | 1013.6 |
| 20260510060047 | 49 | 359 | 0.0 | 1.0 | 0.00 | 0.56 | 0.06 | 65 | 1013.5 |
| 20260510054546 | 49 | 359 | 0.0 | 0.0 | 0.00 | 0.56 | 0.06 | 65 | 1013.4 |
| 20260510053046 | 49 | 206 | 0.0 | 1.0 | 0.00 | 0.56 | 0.06 | 64 | 1013.5 |
| 20260510051550 | 49 | 184 | 0.0 | 1.0 | 0.00 | 0.56 | 0.06 | 65 | 1013.4 |
| 20260510050041 | 49 | 219 | 0.0 | 0.0 | 0.00 | 0.56 | 0.06 | 65 | 1013.3 |
| 20260510044539 | 50 | 359 | 0.0 | 0.0 | 0.00 | 0.56 | 0.06 | 65 | 1013.3 |
| 20260510043041 | 49 | 173 | 0.0 | 1.0 | 0.00 | 0.56 | 0.06 | 65 | 1013.4 |
| 20260510041539 | 49 | 297 | 0.0 | 0.0 | 0.00 | 0.56 | 0.06 | 65 | 1013.3 |
| 20260510040044 | 49 | 200 | 0.0 | 0.0 | 0.01 | 0.56 | 0.06 | 65 | 1013.5 |
| 20260510034542 | 49 | 199 | 0.0 | 0.0 | 0.04 | 0.56 | 0.06 | 65 | 1013.5 |
| 20260510033033 | 50 | 359 | 0.0 | 0.0 | 0.04 | 0.56 | 0.06 | 65 | 1013.5 |
| 20260510031534 | 50 | 205 | 0.0 | 0.0 | 0.04 | 0.56 | 0.06 | 65 | 1013.7 |
| 20260510030033 | 50 | 249 | 0.0 | 0.0 | 0.03 | 0.56 | 0.05 | 65 | 1013.6 |
| 20260510024532 | 50 | 359 | 0.0 | 0.0 | 0.00 | 0.54 | 0.02 | 65 | 1013.5 |
| 20260510023030 | 50 | 191 | 0.0 | 0.0 | 0.01 | 0.54 | 0.02 | 65 | 1013.6 |
| 20260510021532 | 50 | 192 | 0.0 | 0.0 | 0.01 | 0.54 | 0.02 | 64 | 1013.7 |
| 20260510020031 | 50 | 173 | 0.0 | 1.0 | 0.01 | 0.54 | 0.02 | 64 | 1013.8 |
| 20260510014529 | 50 | 359 | 0.0 | 0.0 | 0.01 | 0.54 | 0.02 | 65 | 1013.6 |
| 20260510013030 | 50 | 187 | 0.0 | 0.0 | 0.00 | 0.53 | 0.01 | 65 | 1013.6 |
| 20260510011527 | 50 | 158 | 0.0 | 1.0 | 0.00 | 0.53 | 0.01 | 65 | 1013.7 |
| 20260510010027 | 50 | 192 | 0.0 | 5.0 | 0.01 | 0.53 | 0.01 | 65 | 1013.9 |
| 20260510004528 | 50 | 139 | 0.0 | 4.0 | 0.01 | 0.53 | 0.01 | 65 | 1014.1 |
| 20260510003029 | 50 | 185 | 0.0 | 8.0 | 0.01 | 0.53 | 0.01 | 65 | 1014.0 |
| 20260510001525 | 50 | 179 | 0.0 | 5.0 | 0.01 | 0.53 | 0.01 | 64 | 1014.0 |
| 20260510000025 | 50 | 219 | 0.0 | 0.0 | 0.00 | 0.52 | 0.00 | 64 | 1013.9 |
| 20260509234523 | 50 | 204 | 0.0 | 0.0 | 0.00 | 0.52 | 0.00 | 64 | 1013.9 |
| 20260509233023 | 50 | 180 | 0.0 | 0.0 | 0.00 | 0.52 | 0.00 | 64 | 1014.0 |
| 20260509231522 | 50 | 176 | 0.0 | 0.0 | 0.00 | 0.52 | 0.00 | 64 | 1014.0 |
| 20260509230021 | 50 | 189 | 0.0 | 0.0 | 0.00 | 0.52 | 0.00 | 64 | 1013.9 |
| 20260509224519 | 50 | 359 | 0.0 | 0.0 | 0.00 | 0.52 | 0.00 | 64 | 1014.0 |
| 20260509223019 | 50 | 176 | 0.0 | 0.0 | 0.00 | 0.52 | 0.00 | 64 | 1013.7 |
| 20260509221518 | 50 | 239 | 0.0 | 0.0 | 0.00 | 0.52 | 0.00 | 64 | 1013.7 |
| 20260509220016 | 50 | 241 | 0.0 | 0.0 | 0.00 | 0.52 | 0.00 | 63 | 1013.7 |
| 20260509214514 | 50 | 239 | 0.0 | 0.0 | 0.01 | 0.52 | 0.52 | 63 | 1013.6 |
| 20260509213017 | 51 | 238 | 0.0 | 0.0 | 0.04 | 0.52 | 0.52 | 63 | 1013.3 |
| 20260509211513 | 51 | 359 | 0.0 | 0.0 | 0.09 | 0.52 | 0.52 | 64 | 1013.3 |
| 20260509210012 | 51 | 218 | 0.0 | 0.0 | 0.09 | 0.52 | 0.52 | 63 | 1013.1 |
| 20260509204513 | 51 | 195 | 0.0 | 2.0 | 0.09 | 0.51 | 0.51 | 62 | 1013.2 |
| 20260509203022 | 52 | 359 | 2.0 | 23.0 | 0.06 | 0.48 | 0.48 | 60 | 1012.9 |
| 20260509201512 | 53 | 359 | 0.0 | 0.0 | 0.00 | 0.43 | 0.43 | 63 | 1011.4 |
| 20260509200010 | 53 | 79 | 0.0 | 0.0 | 0.00 | 0.43 | 0.43 | 63 | 1011.3 |